Hourly Data Report for July 05, 2022

OTTAWA INTL A
ONTARIO
Current Station Operator: NAVCAN

45°19'00.000" N
75°40'00.000" W
114.90 m
6106001
71628
YOW

Download Data

Hourly Data (July 2022)
Hourly Data Report for July 5, 2022
TIME
LST
Temp Definition
°C
Dew Point Definition
°C
Rel Hum Definition
%
Precip. Amount Definition
mm

Wind Dir Definition
10's deg

Wind Spd Definition
km/h
Visibility Definition
km
Stn Press Definition
kPa
Hmdx Definition


Wind Chill Definition


Weather Definition


00:00 17.9 12.7 71   21 12 24.1 100.42     LegendNANA
01:00 18.1 13.1 72   22 11 24.1 100.37     Cloudy
02:00 17.0 13.4 79   22 7 24.1 100.34     LegendNANA
03:00 17.1 13.4 79   20 9 24.1 100.32     LegendNANA
04:00 16.5 13.7 84   20 8 24.1 100.31     Rain
05:00 17.0 14.1 83   21 9 24.1 100.29     LegendNANA
06:00 17.2 14.4 84   22 8 24.1 100.29     LegendNANA
07:00 17.5 15.3 86   23 5 16.1 100.26     Rain
08:00 17.7 15.4 86   17 5 24.1 100.24     Rain
09:00 18.8 16.3 85   19 7 24.1 100.18     Rain
10:00 19.6 15.1 75   15 10 24.1 100.10     Rain
11:00 20.0 14.8 72   15 11 24.1 100.01     LegendNANA
12:00 20.1 15.4 74   12 11 24.1 99.91     LegendNANA
13:00 20.3 15.0 71   10 13 24.1 99.81     Cloudy
14:00 20.0 15.5 75   11 14 24.1 99.72     LegendNANA
15:00 19.7 16.1 79   10 15 16.1 99.67     Rain
16:00 20.0 17.0 83   8 10 24.1 99.57 25   Rain
17:00 19.6 16.8 83   5 12 24.1 99.51     LegendNANA
18:00 18.3 17.1 92   7 12 16.1 99.44     Rain
19:00 17.6 17.1 97   5 14 3.2 99.43     Rain, Fog
20:00 17.3 16.9 98   2 13 2.4 99.44     Rain, Fog
21:00 16.9 16.6 98   4 10 6.4 99.45     Rain, Fog
22:00 17.1 16.8 98   2 14 8.1 99.46     Fog
23:00 16.8 16.4 97   1 10 8.1 99.46     Fog

Notes on Data Quality.

Legend

  • E = Estimated
  • M = Missing
  • NA = Not Available*
  • [empty] = Indicates an unobserved value
Date modified: